Weather History for Hazlehurst, GA

Change the Weather History Date:

Tuesday, January 22, 2013

  Actual Average Record
Temperature  
Mean Temperature 44 °F -  
Max Temperature 65 °F 49 °F 72 °F (2014)
Min Temperature 33 °F 27 °F 26 °F (2014)
Degree Days  
Heating Degree Days 21    
Moisture  
Dew Point 29 °F    
Average Humidity 61    
Maximum Humidity 92    
Minimum Humidity 34    
Precipitation  
Precipitation 0.00 in - - ()
Sea Level Pressure  
Sea Level Pressure 30.24 in    
Wind  
Wind Speed 3 mph (NW)    
Max Wind Speed 10 mph    
Max Gust Speed 17 mph    
Visibility 10 miles    
Events      
Averages and records for this station are not official NWS values.
T = Trace of Precipitation, MM = Missing Value Source: NWS Daily Summary

Daily Weather History Graph

Daily Weather History Graph

Search for Another Location

Airport:

Trip Planner

Search our weather history database for the weather conditions in past years. The results will help you decide how hot, cold, wet, or windy it might be!

Date:

Astronomy

Jan. 22, 2013 Rise Set
Actual Time 7:29 AM EST 5:55 PM EST
Civil Twilight 7:02 AM EST 6:21 PM EST
Nautical Twilight 6:33 AM EST 6:51 PM EST
Astronomical Twilight 6:04 AM EST 7:20 PM EST
Moon 2:20 PM EST (1/22) 3:47 AM EST (1/22)
Length of Visible Light 11h 18m
Length of Day
10h 26m
Waxing Gibbous, 82% of the Moon is Illuminated
Jan 22
Waxing Gibbous
Jan 26
Full
Feb 3
Last Quarter
Feb 10
New
Feb 17
First Quarter

Hourly Weather History & Observations

Time (EST) Temp. Windchill Dew Point Humidity Pressure Visibility Wind Dir Wind Speed Gust Speed Precip Events Conditions
12:15 AM 45.7 °F - 38.8 °F 77% 30.14 in 10.0 mi Calm Calm - N/A   Clear
12:35 AM 45.0 °F - 38.7 °F 79% 30.14 in 10.0 mi Calm Calm - N/A   Clear
12:55 AM 46.0 °F - 37.0 °F 71% 30.14 in 10.0 mi Calm Calm - N/A   Clear
1:15 AM 45.7 °F 44.4 °F 36.3 °F 70% 30.14 in 10.0 mi NW 3.5 mph - N/A   Clear
1:35 AM 45.0 °F 43.5 °F 35.4 °F 69% 30.14 in 10.0 mi NW 3.5 mph - N/A   Clear
1:55 AM 44.1 °F - 35.4 °F 72% 30.14 in 10.0 mi Calm Calm - N/A   Clear
2:15 AM 43.5 °F 40.1 °F 35.4 °F 73% 30.15 in 10.0 mi NW 5.8 mph - N/A   Clear
2:35 AM 43.2 °F 39.0 °F 34.3 °F 71% 30.15 in 10.0 mi NNW 6.9 mph - N/A   Clear
2:55 AM 42.8 °F 38.0 °F 32.5 °F 67% 30.16 in 10.0 mi NNW 8.1 mph - N/A   Clear
3:15 AM 42.6 °F 39.0 °F 31.8 °F 66% 30.16 in 10.0 mi NNW 5.8 mph - N/A   Clear
3:35 AM 42.1 °F 39.2 °F 31.1 °F 65% 30.17 in 10.0 mi NNW 4.6 mph - N/A   Clear
3:55 AM 41.7 °F 38.8 °F 30.4 °F 64% 30.17 in 10.0 mi NNW 4.6 mph - N/A   Clear
4:15 AM 41.0 °F 39.0 °F 30.0 °F 65% 30.17 in 10.0 mi NNW 3.5 mph - N/A   Clear
4:35 AM 41.0 °F 39.0 °F 29.3 °F 63% 30.17 in 10.0 mi NW 3.5 mph - N/A   Clear
4:55 AM 40.3 °F - 28.9 °F 64% 30.17 in 10.0 mi Calm Calm - N/A   Clear
5:15 AM 39.0 °F 36.8 °F 29.1 °F 68% 30.18 in 10.0 mi NW 3.5 mph - N/A   Clear
5:35 AM 38.5 °F - 28.6 °F 68% 30.19 in 10.0 mi Calm Calm - N/A   Clear
5:55 AM 37.2 °F 34.7 °F 28.6 °F 71% 30.20 in 10.0 mi WNW 3.5 mph - N/A   Clear
6:15 AM 37.8 °F 34.2 °F 27.9 °F 67% 30.21 in 10.0 mi NW 4.6 mph - N/A   Clear
6:35 AM 37.8 °F 35.3 °F 27.3 °F 66% 30.22 in 10.0 mi WNW 3.5 mph - N/A   Clear
6:55 AM 36.9 °F 34.3 °F 27.5 °F 69% 30.23 in 10.0 mi WNW 3.5 mph - N/A   Clear
7:15 AM 36.3 °F 32.5 °F 27.7 °F 71% 30.23 in 10.0 mi WNW 4.6 mph - N/A   Clear
7:35 AM 36.0 °F 33.3 °F 27.7 °F 72% 30.24 in 10.0 mi West 3.5 mph - N/A   Clear
7:55 AM 35.4 °F 32.6 °F 28.4 °F 76% 30.25 in 10.0 mi West 3.5 mph - N/A   Clear
8:15 AM 35.8 °F 33.0 °F 27.7 °F 72% 30.26 in 10.0 mi WNW 3.5 mph - N/A   Clear
8:35 AM 36.5 °F - 27.7 °F 70% 30.26 in 10.0 mi Calm Calm - N/A   Clear
8:55 AM 37.6 °F 34.0 °F 27.9 °F 68% 30.27 in 10.0 mi WNW 4.6 mph - N/A   Clear
9:15 AM 38.7 °F 36.3 °F 28.0 °F 66% 30.28 in 10.0 mi WNW 3.5 mph - N/A   Clear
9:35 AM 40.3 °F 37.1 °F 28.0 °F 62% 30.29 in 10.0 mi WNW 4.6 mph - N/A   Clear
9:55 AM 41.2 °F 35.5 °F 26.2 °F 55% 30.30 in 10.0 mi NW 9.2 mph - N/A   Clear
10:15 AM 42.8 °F 38.0 °F 25.7 °F 51% 30.30 in 10.0 mi NNW 8.1 mph - N/A   Clear
10:35 AM 44.4 °F 39.5 °F 24.3 °F 45% 30.30 in 10.0 mi NNW 9.2 mph - N/A   Clear
10:55 AM 45.5 °F 40.8 °F 23.7 °F 42% 30.30 in 10.0 mi NNW 9.2 mph 16.1 mph N/A   Clear
11:15 AM 46.6 °F - 24.1 °F 41% 30.30 in 10.0 mi NNW 9.2 mph - N/A   Clear
11:35 AM 47.3 °F - 24.3 °F 40% 30.30 in 10.0 mi NNW 6.9 mph - N/A   Clear
11:55 AM 47.7 °F - 24.3 °F 40% 30.29 in 10.0 mi WNW 6.9 mph - N/A   Clear
12:15 PM 49.1 °F - 24.8 °F 39% 30.29 in 10.0 mi NW 5.8 mph 16.1 mph N/A   Clear
12:55 PM 51.4 °F - 25.0 °F 36% 30.27 in 10.0 mi WNW 10.4 mph 17.3 mph N/A   Clear
1:15 PM 51.8 °F - 24.8 °F 35% 30.26 in 10.0 mi NW 9.2 mph - N/A   Clear
1:35 PM 53.1 °F - 25.5 °F 34% 30.25 in 10.0 mi West 9.2 mph - N/A   Clear
1:55 PM 54.0 °F - 25.9 °F 34% 30.24 in 10.0 mi NW 10.4 mph 17.3 mph N/A   Clear
2:15 PM 54.5 °F - 26.2 °F 34% 30.24 in 10.0 mi WNW 8.1 mph - N/A   Clear
2:35 PM 54.3 °F - 26.1 °F 34% 30.24 in 10.0 mi NW 9.2 mph - N/A   Clear
2:55 PM 54.7 °F - 26.6 °F 34% 30.24 in 10.0 mi WNW 6.9 mph - N/A   Clear
3:15 PM 55.0 °F - 26.8 °F 34% 30.23 in 10.0 mi NW 9.2 mph 16.1 mph N/A   Clear
3:35 PM 54.9 °F - 26.6 °F 34% 30.24 in 10.0 mi NW 8.1 mph 17.3 mph N/A   Clear
3:55 PM 54.1 °F - 26.2 °F 34% 30.24 in 10.0 mi NW 8.1 mph - N/A   Clear
4:15 PM 53.8 °F - 26.6 °F 35% 30.24 in 10.0 mi NNW 10.4 mph 16.1 mph N/A   Clear
4:35 PM 53.4 °F - 26.4 °F 35% 30.25 in 10.0 mi NW 3.5 mph - N/A   Clear
4:55 PM 52.7 °F - 26.8 °F 37% 30.25 in 10.0 mi WNW 4.6 mph - N/A   Clear
5:15 PM 51.6 °F - 27.0 °F 38% 30.26 in 10.0 mi Calm Calm - N/A   Clear
5:35 PM 50.4 °F - 26.6 °F 40% 30.26 in 10.0 mi NW 3.5 mph - N/A   Clear
5:55 PM 49.1 °F - 26.6 °F 42% 30.27 in 10.0 mi Calm Calm - N/A   Clear
6:15 PM 45.9 °F - 27.7 °F 49% 30.27 in 10.0 mi Calm Calm - N/A   Clear
6:35 PM 45.5 °F - 28.8 °F 52% 30.27 in 10.0 mi Calm Calm - N/A   Clear
6:55 PM 42.6 °F - 32.2 °F 67% 30.28 in 10.0 mi Calm Calm - N/A   Clear
7:15 PM 41.0 °F - 31.5 °F 69% 30.28 in 10.0 mi Calm Calm - N/A   Clear
7:35 PM 39.7 °F - 32.7 °F 76% 30.28 in 10.0 mi Calm Calm - N/A   Clear
7:55 PM 39.2 °F - 32.2 °F 76% 30.29 in 10.0 mi Calm Calm - N/A   Clear
8:15 PM 38.7 °F - 33.4 °F 81% 30.29 in 10.0 mi Calm Calm - N/A   Clear
8:35 PM 37.2 °F - 33.3 °F 86% 30.29 in 10.0 mi Calm Calm - N/A   Clear
8:55 PM 36.3 °F - 32.7 °F 87% 30.30 in 10.0 mi Calm Calm - N/A   Clear
9:15 PM 37.0 °F - 32.4 °F 83% 30.30 in 10.0 mi Calm Calm - N/A   Clear
9:35 PM 38.1 °F - 31.1 °F 76% 30.30 in 10.0 mi Calm Calm - N/A   Clear
9:55 PM 37.9 °F - 30.9 °F 76% 30.30 in 10.0 mi Calm Calm - N/A   Clear
10:15 PM 36.1 °F - 32.9 °F 88% 30.30 in 10.0 mi Calm Calm - N/A   Clear
10:35 PM 34.9 °F - 32.7 °F 92% 30.31 in 10.0 mi Calm Calm - N/A   Clear
10:55 PM 34.5 °F - 32.2 °F 91% 30.32 in 10.0 mi Calm Calm - N/A   Clear
11:15 PM 34.3 °F - 31.5 °F 89% 30.32 in 10.0 mi Calm Calm - N/A   Clear
11:35 PM 33.8 °F - 30.7 °F 89% 30.32 in 10.0 mi Calm Calm - N/A   Clear
11:55 PM 33.6 °F - 30.6 °F 89% 30.32 in 10.0 mi Calm Calm - N/A   Clear